Change the Weather History Date:

Saturday, July 20, 2013

  Actual Average Record
Temperature  
Mean Temperature 65 °F 55 °F  
Max Temperature 71 °F 61 °F 77 °F (1955)
Min Temperature 59 °F 50 °F 39 °F (1965)
Degree Days  
Heating Degree Days 0 10  
Month to date heating degree days 168 222  
Since 1 June heating degree days 499 683  
Since 1 July heating degree days 168 222  
Cooling Degree Days 0    
Month to date cooling degree days 2  
Year to date cooling degree days 5  
Since 1 June cooling degree days 5  
Growing Degree Days 16 (Base 50)    
Moisture  
Dew Point 50 °F    
Average Humidity 0    
Maximum Humidity 0    
Minimum Humidity 0    
Precipitation  
Precipitation 0.00 in 0.16 in 3.54 in (1998)
Month to date precipitation 1.04 3.26  
Year to date precipitation 30.59 40.56  
Snow  
Snow 0.00 in 0.00 in 0.00 in (2014)
Month to date snowfall 0.0 0.0  
Since 1 June snowfall 0.0 0.0  
Since 1 July snowfall 0.0 0.0  
Snow Depth 0.00 in    
Sea Level Pressure  
Sea Level Pressure 30.22 in    
Wind  
Wind Speed 15 mph (WNW)    
Max Wind Speed 29 mph    
Max Gust Speed 37 mph    
Visibility 10 miles    
Events      
T = Trace of Precipitation, MM = Missing Value Source: NWS Daily Summary

Daily Weather History Graph

Daily Weather History Graph

Search for Another Location

Airport or City:

Trip Planner

Search our weather history database for the weather conditions in past years. The results will help you decide how hot, cold, wet, or windy it might be!

Date:

Astronomy

Jul. 20, 2013 Rise Set
Actual Time 5:42 AM AKDT 10:49 PM AKDT
Civil Twilight 4:42 AM AKDT 11:48 PM AKDT
Nautical Twilight 2:48 AM AKDT 1:43 AM AKDT
Astronomical Twilight Sun does not rise Sun does not rise
Moon 8:57 PM AKDT (7/20) 3:35 AM AKDT (7/20)
Length of Visible Light 19h 06m
Length of Day
17h 07m
Waxing Gibbous, 94% of the Moon is Illuminated
Jul 20
Waxing Gibbous
Jul 22
Full
Jul 29
Last Quarter
Aug 6
New
Aug 14
First Quarter

Hourly Weather History & Observations

Time (AKDT) Temp. Dew Point Humidity Pressure Visibility Wind Dir Wind Speed Gust Speed Precip Events Conditions
12:53 AM 66.9 °F 52.0 °F 59% 30.26 in 10.0 mi WNW 17.3 mph 24.2 mph N/A   Mostly Cloudy
1:53 AM 66.0 °F 52.0 °F 60% 30.25 in 10.0 mi WNW 25.3 mph 32.2 mph N/A   Mostly Cloudy
2:53 AM 64.0 °F 52.0 °F 65% 30.25 in 10.0 mi WNW 20.7 mph - N/A   Partly Cloudy
3:53 AM 64.0 °F 52.0 °F 65% 30.22 in 10.0 mi West 24.2 mph 29.9 mph N/A   Scattered Clouds
4:53 AM 62.1 °F 52.0 °F 70% 30.22 in 10.0 mi WNW 27.6 mph 36.8 mph N/A   Scattered Clouds
5:53 AM 62.1 °F 51.1 °F 67% 30.22 in 10.0 mi NW 19.6 mph 31.1 mph N/A   Scattered Clouds
6:53 AM 62.1 °F 50.0 °F 65% 30.23 in 10.0 mi NW 16.1 mph 27.6 mph N/A   Scattered Clouds
7:53 AM 63.0 °F 48.9 °F 60% 30.24 in 10.0 mi WNW 21.9 mph 28.8 mph N/A   Scattered Clouds
8:53 AM 64.0 °F 48.9 °F 58% 30.24 in 10.0 mi NW 20.7 mph - N/A   Scattered Clouds
9:53 AM 66.0 °F 48.9 °F 54% 30.23 in 10.0 mi WNW 20.7 mph 28.8 mph N/A   Scattered Clouds
10:53 AM 66.9 °F 50.0 °F 54% 30.24 in 10.0 mi WNW 12.7 mph - N/A   Scattered Clouds
11:53 AM 69.1 °F 51.1 °F 53% 30.24 in 10.0 mi WNW 11.5 mph 18.4 mph N/A   Scattered Clouds
12:53 PM 70.0 °F 50.0 °F 49% 30.24 in 10.0 mi WNW 12.7 mph 19.6 mph N/A   Mostly Cloudy
1:53 PM 68.0 °F 50.0 °F 52% 30.23 in 10.0 mi WNW 9.2 mph 19.6 mph N/A   Mostly Cloudy
2:53 PM 69.1 °F 51.1 °F 53% 30.22 in 10.0 mi NW 8.1 mph 21.9 mph N/A   Mostly Cloudy
3:53 PM 68.0 °F 50.0 °F 52% 30.21 in 10.0 mi WNW 12.7 mph 19.6 mph N/A   Mostly Cloudy
4:53 PM 68.0 °F 50.0 °F 52% 30.22 in 10.0 mi West 9.2 mph 16.1 mph N/A   Mostly Cloudy
5:53 PM 66.0 °F 51.1 °F 59% 30.21 in 10.0 mi WNW 9.2 mph 16.1 mph N/A   Overcast
6:53 PM 66.9 °F 50.0 °F 54% 30.19 in 10.0 mi NW 13.8 mph - N/A   Overcast
7:53 PM 66.0 °F 48.9 °F 54% 30.19 in 10.0 mi WNW 9.2 mph 17.3 mph N/A   Overcast
8:53 PM 64.9 °F 51.1 °F 61% 30.17 in 10.0 mi WNW 11.5 mph - N/A   Mostly Cloudy
9:53 PM 63.0 °F 50.0 °F 63% 30.17 in 10.0 mi WNW 16.1 mph 19.6 mph N/A   Mostly Cloudy
10:53 PM 63.0 °F 48.9 °F 60% 30.17 in 10.0 mi Variable 6.9 mph - N/A   Mostly Cloudy
11:53 PM 61.0 °F 48.9 °F 64% 30.16 in 10.0 mi WNW 3.5 mph - N/A   Mostly Cloudy